Back to catalog

ARIANE 44L+ DEB

AliveGTO
NORAD 28577·DEBRIS·🇫🇷 France

Launched Apr 15, 1992 from Guiana Space Centre

Loading…

TLE

AgingSource: Space-Track

Epoch: Sep 14, 2026, 09:23 UTC

1 28577U 92021R   26257.39137854 -.00000068  00000-0  00000-0 0  9990
2 28577   3.6930  69.1359 6988069 356.1516 295.2875  2.23208199179717

Track ARIANE 44L+ DEB in real time with AllMySat

Download on the App Store